SHT16E EGLL-EGPE

Flight info

Callsign SHT16E
Flight time N/A
Altitude 38000
Route ULTIB T420 TNT UN57 POL UN601 RIBEL DCT SHAPP DCT INREV DCT TLA DCT FOYLE/N0374F250 N560 NESDI DCT GUSSI
Aircraft A20N/M-SDE2E3FGHIRWXY/LB1

Departure

Time 2026-05-01 13:44
Airport London Heathrow Airport (EGLL)

Arrival

Time N/A
Airport Inverness Airport (EGPE)
Time Latitude Longitude Altitude Speed Heading
2026-05-01 13:09 51.47414 -0.48954 81 ft 0 kts 180°
2026-05-01 13:34 51.47439 -0.48954 82 ft 2 kts 180°
2026-05-01 13:35 51.47469 -0.48954 82 ft 2 kts 180°
2026-05-01 13:35 51.47484 -0.48954 82 ft 2 kts 180°
2026-05-01 13:35 51.47514 -0.48955 82 ft 2 kts 180°
2026-05-01 13:36 51.47522 -0.48954 82 ft 0 kts 175°
2026-05-01 13:36 51.47525 -0.48956 82 ft 0 kts 148°
2026-05-01 13:39 51.47520 -0.48950 82 ft 2 kts 144°
2026-05-01 13:39 51.47502 -0.48920 82 ft 5 kts 128°
2026-05-01 13:39 51.47487 -0.48851 82 ft 8 kts 94°
2026-05-01 13:39 51.47487 -0.48737 82 ft 12 kts 90°
2026-05-01 13:40 51.47486 -0.48590 82 ft 13 kts 90°
2026-05-01 13:40 51.47439 -0.48473 80 ft 16 kts 174°
2026-05-01 13:40 51.47319 -0.48473 79 ft 18 kts 180°
2026-05-01 13:40 51.47193 -0.48472 79 ft 17 kts 180°
2026-05-01 13:41 51.47069 -0.48471 79 ft 17 kts 180°
2026-05-01 13:41 51.46949 -0.48468 80 ft 16 kts 179°
2026-05-01 13:41 51.46832 -0.48468 81 ft 17 kts 180°
2026-05-01 13:41 51.46710 -0.48469 80 ft 17 kts 181°
2026-05-01 13:42 51.46648 -0.48597 80 ft 17 kts 269°
2026-05-01 13:42 51.46634 -0.48739 80 ft 5 kts 220°
2026-05-01 13:42 51.46621 -0.48751 80 ft 0 kts 208°
2026-05-01 13:42 51.46601 -0.48765 80 ft 6 kts 202°
2026-05-01 13:43 51.46543 -0.48777 80 ft 10 kts 180°
2026-05-01 13:43 51.46478 -0.48696 80 ft 15 kts 96°
2026-05-01 13:43 51.46480 -0.48303 80 ft 69 kts 91°
2026-05-01 13:43 51.46486 -0.47155 80 ft 135 kts 91°
2026-05-01 13:44 51.46484 -0.45353 177 ft 177 kts 95°
2026-05-01 13:44 51.46476 -0.43389 754 ft 180 kts 89°
2026-05-01 13:44 51.46783 -0.41428 1430 ft 187 kts 65°
2026-05-01 13:44 51.47539 -0.39789 2172 ft 186 kts 53°
2026-05-01 13:45 51.48409 -0.38157 2600 ft 201 kts 52°
2026-05-01 13:45 51.49369 -0.36385 2989 ft 221 kts 51°
2026-05-01 13:45 51.50432 -0.34430 3383 ft 242 kts 51°
2026-05-01 13:45 51.51578 -0.32308 3882 ft 260 kts 53°
2026-05-01 13:46 51.52501 -0.29721 4417 ft 273 kts 72°
2026-05-01 13:46 51.53101 -0.26821 5162 ft 278 kts 76°
2026-05-01 13:46 51.53676 -0.23854 5672 ft 280 kts 75°
2026-05-01 13:46 51.54301 -0.20900 5926 ft 283 kts 70°
2026-05-01 13:47 51.55451 -0.18352 5959 ft 288 kts 38°
2026-05-01 13:47 51.57275 -0.17129 5968 ft 289 kts
2026-05-01 13:47 51.59220 -0.17605 5968 ft 286 kts 332°
2026-05-01 13:47 51.60703 -0.19624 5973 ft 279 kts 301°
2026-05-01 13:48 51.61733 -0.22276 5971 ft 282 kts 303°
2026-05-01 13:48 51.63061 -0.24612 5971 ft 285 kts 317°
2026-05-01 13:48 51.64663 -0.26534 5973 ft 287 kts 324°
2026-05-01 13:48 51.66351 -0.28244 5974 ft 287 kts 327°
2026-05-01 13:49 51.68068 -0.29894 5970 ft 286 kts 327°
2026-05-01 13:49 51.69781 -0.31525 5966 ft 287 kts 327°
2026-05-01 13:49 51.71498 -0.33168 5968 ft 286 kts 327°
2026-05-01 13:49 51.73194 -0.34796 5970 ft 286 kts 327°
2026-05-01 13:50 51.74914 -0.36453 5970 ft 287 kts 327°
2026-05-01 13:50 51.76633 -0.38115 5971 ft 287 kts 327°
2026-05-01 13:50 51.78343 -0.39771 5973 ft 288 kts 327°
2026-05-01 13:50 51.80091 -0.41464 6248 ft 296 kts 327°
2026-05-01 13:51 51.81836 -0.43153 7159 ft 297 kts 327°
2026-05-01 13:51 51.83585 -0.44848 8131 ft 297 kts 327°
2026-05-01 13:51 51.85373 -0.46583 9000 ft 301 kts 327°
2026-05-01 13:51 51.87177 -0.48338 9826 ft 306 kts 327°
2026-05-01 13:52 51.88991 -0.50104 10610 ft 311 kts 327°
2026-05-01 13:52 51.90884 -0.51951 11091 ft 327 kts 327°
2026-05-01 13:52 51.92880 -0.53899 11551 ft 343 kts 327°
2026-05-01 13:52 51.94920 -0.55887 12248 ft 349 kts 327°
2026-05-01 13:53 51.97026 -0.57938 13025 ft 353 kts 327°
2026-05-01 13:53 52.01238 -0.62052 14494 ft 361 kts 327°
2026-05-01 13:53 52.03405 -0.64176 15212 ft 365 kts 327°
2026-05-01 13:54 52.05594 -0.66327 15915 ft 370 kts 326°
2026-05-01 13:54 52.07802 -0.68510 16608 ft 374 kts 326°
2026-05-01 13:54 52.10015 -0.70698 17280 ft 378 kts 326°
2026-05-01 13:54 52.12262 -0.72908 17944 ft 382 kts 326°
2026-05-01 13:55 52.14549 -0.75150 18619 ft 385 kts 327°
2026-05-01 13:55 52.16847 -0.77408 19252 ft 389 kts 326°
2026-05-01 13:55 52.19169 -0.79700 19875 ft 393 kts 326°
2026-05-01 13:55 52.21484 -0.81990 20523 ft 396 kts 326°
2026-05-01 13:56 52.23844 -0.84327 21148 ft 399 kts 326°
2026-05-01 13:56 52.26217 -0.86679 21727 ft 403 kts 326°
2026-05-01 13:56 52.28614 -0.89056 22307 ft 406 kts 326°
2026-05-01 13:56 52.31034 -0.91460 22871 ft 410 kts 326°
2026-05-01 13:57 52.33470 -0.93885 23419 ft 413 kts 326°
2026-05-01 13:57 52.35933 -0.96341 23976 ft 416 kts 326°
2026-05-01 13:57 52.38388 -0.98794 24509 ft 419 kts 326°
2026-05-01 13:57 52.40891 -1.01297 25028 ft 422 kts 326°
2026-05-01 13:58 52.43397 -1.03809 25534 ft 425 kts 326°
2026-05-01 13:58 52.45900 -1.06320 26023 ft 428 kts 326°
2026-05-01 13:58 52.48461 -1.08890 26500 ft 431 kts 326°
2026-05-01 13:58 52.51018 -1.11461 26956 ft 434 kts 326°
2026-05-01 13:59 52.53598 -1.14057 27401 ft 437 kts 326°
2026-05-01 13:59 52.56171 -1.16650 27842 ft 439 kts 326°
2026-05-01 13:59 52.58800 -1.19298 28278 ft 441 kts 327°
2026-05-01 13:59 52.61427 -1.21949 28699 ft 444 kts 326°
2026-05-01 14:00 52.64039 -1.24591 29093 ft 447 kts 326°
2026-05-01 14:00 52.66679 -1.27266 29484 ft 449 kts 326°
2026-05-01 14:00 52.69345 -1.29972 29865 ft 452 kts 326°
2026-05-01 14:00 52.72031 -1.32698 30247 ft 454 kts 326°
2026-05-01 14:01 52.74727 -1.35437 30628 ft 456 kts 326°
2026-05-01 14:01 52.77428 -1.38187 31119 ft 454 kts 326°
2026-05-01 14:01 52.80087 -1.40899 31654 ft 451 kts 326°
2026-05-01 14:01 52.82707 -1.43580 32147 ft 449 kts 326°
2026-05-01 14:02 52.85385 -1.46323 32617 ft 447 kts 326°
2026-05-01 14:02 52.87996 -1.49005 33044 ft 445 kts 326°
2026-05-01 14:02 52.90625 -1.51708 33457 ft 444 kts 326°
2026-05-01 14:02 52.93230 -1.54393 33861 ft 442 kts 326°
2026-05-01 14:03 52.95840 -1.57085 34079 ft 441 kts 326°
2026-05-01 14:03 52.98449 -1.59779 34083 ft 439 kts 326°
2026-05-01 14:03 53.03682 -1.65030 34084 ft 439 kts 329°
2026-05-01 14:04 53.09212 -1.69375 34088 ft 441 kts 336°
2026-05-01 14:04 53.14915 -1.72942 34084 ft 441 kts 338°
2026-05-01 14:05 53.20654 -1.76457 34087 ft 441 kts 338°
2026-05-01 14:05 53.26406 -1.80019 34084 ft 440 kts 338°
2026-05-01 14:06 53.32120 -1.83581 34089 ft 440 kts 338°
2026-05-01 14:06 53.37851 -1.87172 34089 ft 440 kts 338°
2026-05-01 14:07 53.43553 -1.90755 34091 ft 439 kts 338°
2026-05-01 14:08 53.52144 -1.96169 34095 ft 439 kts 338°
2026-05-01 14:08 53.57820 -1.99761 34089 ft 439 kts 338°
2026-05-01 14:09 53.63529 -2.03388 34090 ft 438 kts 338°
2026-05-01 14:09 53.69223 -2.07017 34091 ft 439 kts 338°
2026-05-01 14:10 53.74908 -2.10653 34093 ft 438 kts 337°
2026-05-01 14:10 53.80558 -2.14487 34092 ft 438 kts 336°
2026-05-01 14:11 53.86205 -2.18369 34092 ft 438 kts 336°
2026-05-01 14:11 53.94639 -2.24146 34091 ft 437 kts 336°
2026-05-01 14:12 54.00245 -2.28003 34088 ft 437 kts 336°
2026-05-01 14:12 54.05891 -2.31890 34089 ft 438 kts 336°
2026-05-01 14:13 54.11544 -2.35791 34091 ft 438 kts 336°
2026-05-01 14:13 54.17177 -2.39676 34090 ft 438 kts 336°
2026-05-01 14:14 54.22815 -2.43590 34085 ft 438 kts 336°
2026-05-01 14:14 54.28446 -2.47519 34086 ft 438 kts 336°
2026-05-01 14:15 54.34060 -2.51451 34083 ft 438 kts 336°
2026-05-01 14:15 54.39659 -2.55386 34077 ft 437 kts 336°
2026-05-01 14:16 54.45266 -2.59341 34079 ft 437 kts 336°
2026-05-01 14:16 54.50901 -2.63322 34074 ft 437 kts 336°
2026-05-01 14:17 54.56496 -2.67276 34074 ft 438 kts 335°
2026-05-01 14:17 54.62103 -2.71276 34077 ft 438 kts 335°
2026-05-01 14:18 54.67751 -2.75308 34077 ft 438 kts 335°
2026-05-01 14:18 54.73362 -2.79321 34074 ft 438 kts 335°
2026-05-01 14:19 54.78957 -2.83334 34073 ft 438 kts 335°
2026-05-01 14:19 54.84573 -2.87372 34074 ft 438 kts 336°
2026-05-01 14:20 54.93005 -2.93458 34073 ft 437 kts 336°
2026-05-01 14:21 54.98605 -2.97516 34074 ft 437 kts 336°
2026-05-01 14:21 55.04199 -3.01583 34078 ft 437 kts 336°
2026-05-01 14:22 55.12476 -3.07619 34076 ft 438 kts 336°
2026-05-01 14:22 55.18099 -3.11712 34071 ft 439 kts 335°
2026-05-01 14:23 55.23711 -3.15822 34077 ft 440 kts 335°
2026-05-01 14:23 55.29336 -3.19965 34074 ft 440 kts 335°
2026-05-01 14:24 55.34984 -3.24146 34072 ft 440 kts 335°
2026-05-01 14:24 55.40607 -3.28321 34072 ft 439 kts 335°
2026-05-01 14:25 55.46116 -3.32699 34063 ft 439 kts 330°